Terminal Aerodrome Forecast
Issued by NWS Louisville, KY

Home | Current Version | Previous Version | Text Only | Print | Product List | Glossary On
Versions: 1 2 3 4 5 6 7 8 9 10 11 12 13 14 15 16 17 18
892
FTUS43 KLMK 201459 AAC
TAFLEX
TAF AMD
KLEX 201459Z 2015/2112 VRB10G20KT 5SM -SHRA VCTS OVC035CB
     FM201700 18007KT P6SM VCSH BKN040
     FM201900 19007KT P6SM OVC050
     FM210000 19006KT P6SM VCSH BKN020 PROB30 2101/2105 4SM -TSRA
      BKN012CB
     FM210600 22005KT 4SM BR BKN015
     FM210900 31005KT 4SM BR OVC007=

USA.gov is the U.S. government's official web portal to all federal, state and local government web resources and services.